Flag for U.S.A. Weather past 2 weeks in Cape Canaveral, Florida, U.S.A.

Now
57 °F

Clear.


Feels Like: 56 °F
Forecast: 57 / 72 °F
Wind: 6 mph from Northwest

Location: Cape Kennedy

Current Time: Dec 26, 2014 at 4:32:14 AM

Latest Report: Dec 26, 2014 at 3:58 AM


Visibility: 10 mi

Pressure: 30.21 "Hg

Humidity: 88%

Dew point: 53 °F

Location of Cape CanaveralLocation

Historic Weather in Cape Canaveral — Graph

°F

Cape Canaveral temperature yesterday

Maximum temperature yesterday: 66 °F (at 12:03 AM)
Minimum temperature yesterday: 58 °F (at 11:58 PM)
Average temperature yesterday: 62 °F

Past Weeks' High & Low Weather Summary

 TemperatureHumidityPressure
High79 °F (Dec 23, 1:58 PM)100% (Dec 23, 2:03 AM)30.26 "Hg (Dec 23, 2:03 AM)
Low41 °F (Dec 16, 3:58 AM)29% (Dec 14, 12:58 PM)29.89 "Hg (Dec 24, 6:58 PM)
Average60 °F79%30.09 "Hg
* Reported Dec 11 2:58 AM — Dec 26 2:58 AM, Cape Canaveral, Weather by CustomWeather, © 2014

Note: Actual official high and low records may vary slightly from our data, if they occured in-between our weather recording intervals... More about our weather records

Advertising

Cape Canaveral weather history for previous 24 hours

 ConditionsComfort  
Time TempWeatherWind HumidityBarometerVisibility
2:58 AM
Dec 26
57 °FClear.8 mph83%30.21 "Hg10 mi
1:58 AM57 °FClear.9 mph80%30.22 "Hg10 mi
12:58 AM58 °FClear.8 mph77%30.22 "Hg10 mi
11:58 PM
Dec 25
58 °FClear.7 mph77%30.23 "Hg10 mi
10:58 PM58 °FClear.6 mph75%30.23 "Hg10 mi
9:58 PM58 °FClear.8 mph80%30.24 "Hg10 mi
8:58 PM59 °FClear.6 mph76%30.23 "Hg10 mi
7:58 PM59 °FPassing clouds.3 mph76%30.22 "Hg10 mi
6:58 PM60 °FOvercast.5 mph74%30.20 "Hg10 mi
5:58 PM60 °FPassing clouds.3 mph72%30.19 "Hg10 mi
4:58 PM61 °FOvercast.6 mph72%30.19 "Hg10 mi
3:58 PM62 °FPartly sunny.6 mph68%30.17 "Hg10 mi
2:58 PM63 °FPartly sunny.7 mph65%30.18 "Hg10 mi
1:58 PM64 °FOvercast.6 mph61%30.17 "Hg10 mi
12:58 PM65 °FPartly sunny.7 mph62%30.19 "Hg10 mi
11:58 AM64 °FOvercast.9 mph60%30.21 "Hg10 mi
10:58 AM64 °FOvercast.12 mph60%30.22 "Hg10 mi
9:58 AM62 °FOvercast.12 mph66%30.21 "Hg10 mi
8:58 AM62 °FBroken clouds.12 mph65%30.18 "Hg10 mi
7:58 AM61 °FSunny.10 mph60%30.14 "Hg10 mi
6:58 AM61 °FPassing clouds.14 mph70%30.09 "Hg10 mi
5:58 AM64 °FOvercast.12 mph86%30.06 "Hg10 mi
4:58 AM64 °FOvercast.13 mph87%30.03 "Hg10 mi
Weather by CustomWeather, © 2014

See weather overviewHow to use our weather pages